Time,TemperatureF,DewpointF,PressureIn,WindDirection,WindDirectionDegrees,WindSpeedMPH,WindSpeedGustMPH,Humidity,HourlyPrecipIn,Conditions,Clouds,dailyrainin,SoftwareType,DateUTC
2013-03-04 00:00:00,32.1,0.0,29.56,SSW,212,3.0,16.0,0,0.00,,,0.00,VWS V14.01,2013-03-04 05:00:00,
2013-03-04 00:10:00,32.1,0.0,29.56,SW,233,3.0,7.0,0,0.00,,,0.00,VWS V14.01,2013-03-04 05:10:00,
2013-03-04 00:20:00,31.9,0.0,29.57,SW,225,2.0,14.0,0,0.00,,,0.00,VWS V14.01,2013-03-04 05:20:00,
2013-03-04 00:30:00,31.6,0.0,29.57,SW,219,4.0,11.0,0,0.00,,,0.00,VWS V14.01,2013-03-04 05:30:00,
2013-03-04 00:40:00,31.6,0.0,29.57,SSW,200,0.0,7.0,0,0.00,,,0.00,VWS V14.01,2013-03-04 05:40:00,
2013-03-04 00:50:00,31.6,0.0,29.57,SW,235,3.0,10.0,0,0.00,,,0.00,VWS V14.01,2013-03-04 05:50:00,
2013-03-04 01:00:00,31.5,0.0,29.57,SW,225,0.0,10.0,0,0.00,,,0.00,VWS V14.01,2013-03-04 06:00:00,
2013-03-04 01:10:00,31.2,0.0,29.57,WSW,255,4.0,6.0,0,0.00,,,0.00,VWS V14.01,2013-03-04 06:10:00,
2013-03-04 01:20:00,31.0,0.0,29.58,WSW,254,0.0,11.0,0,0.00,,,0.00,VWS V14.01,2013-03-04 06:20:00,
2013-03-04 01:30:00,31.0,0.0,29.58,SW,227,3.0,12.0,0,0.00,,,0.00,VWS V14.01,2013-03-04 06:30:00,
2013-03-04 01:40:00,30.7,0.0,29.58,SW,227,9.0,9.0,0,0.00,,,0.00,VWS V14.01,2013-03-04 06:40:00,
2013-03-04 01:50:00,30.6,0.0,29.57,SW,229,4.0,10.0,0,0.00,,,0.00,VWS V14.01,2013-03-04 06:50:00,
2013-03-04 02:00:00,30.6,0.0,29.58,SW,221,6.0,10.0,0,0.00,,,0.00,VWS V14.01,2013-03-04 07:00:00,
2013-03-04 02:10:00,30.6,0.0,29.58,SW,225,0.0,15.0,0,0.00,,,0.00,VWS V14.01,2013-03-04 07:10:00,
2013-03-04 02:20:00,30.6,0.0,29.58,SSW,205,10.0,13.0,0,0.00,,,0.00,VWS V14.01,2013-03-04 07:20:00,
2013-03-04 02:30:00,30.6,0.0,29.58,South,175,0.0,15.0,0,0.00,,,0.00,VWS V14.01,2013-03-04 07:30:00,
2013-03-04 02:40:00,30.6,0.0,29.58,WSW,248,0.0,12.0,0,0.00,,,0.00,VWS V14.01,2013-03-04 07:40:00,
2013-03-04 02:50:00,30.4,0.0,29.58,SW,236,4.0,12.0,0,0.00,,,0.00,VWS V14.01,2013-03-04 07:50:00,
2013-03-04 03:00:00,30.4,0.0,29.58,SW,217,5.0,11.0,0,0.00,,,0.00,VWS V14.01,2013-03-04 08:00:00,
2013-03-04 03:10:00,30.3,0.0,29.58,SSW,213,0.0,7.0,0,0.00,,,0.00,VWS V14.01,2013-03-04 08:10:00,
2013-03-04 03:20:00,30.1,0.0,29.57,SSW,205,5.0,11.0,0,0.00,,,0.00,VWS V14.01,2013-03-04 08:20:00,
2013-03-04 03:30:00,30.1,0.0,29.58,SSW,201,3.0,7.0,0,0.00,,,0.00,VWS V14.01,2013-03-04 08:30:00,
2013-03-04 03:40:00,30.0,0.0,29.58,South,189,2.0,11.0,0,0.00,,,0.00,VWS V14.01,2013-03-04 08:40:00,
2013-03-04 03:50:00,29.8,0.0,29.58,West,281,3.0,8.0,0,0.00,,,0.00,VWS V14.01,2013-03-04 08:50:00,
2013-03-04 04:00:00,29.8,0.0,29.58,SW,215,3.0,9.0,0,0.00,,,0.00,VWS V14.01,2013-03-04 09:00:00,
2013-03-04 04:10:00,29.7,0.0,29.58,SSW,197,2.0,6.0,0,0.00,,,0.00,VWS V14.01,2013-03-04 09:10:00,
2013-03-04 04:20:00,29.7,0.0,29.58,SW,236,1.0,6.0,0,0.00,,,0.00,VWS V14.01,2013-03-04 09:20:00,
2013-03-04 04:30:00,29.5,0.0,29.59,WSW,254,1.0,6.0,0,0.00,,,0.00,VWS V14.01,2013-03-04 09:30:00,
2013-03-04 04:40:00,29.5,0.0,29.59,SW,224,1.0,12.0,0,0.00,,,0.00,VWS V14.01,2013-03-04 09:40:00,
2013-03-04 04:50:00,29.5,0.0,29.60,SW,219,0.0,9.0,0,0.00,,,0.00,VWS V14.01,2013-03-04 09:50:00,
2013-03-04 05:00:00,29.5,0.0,29.60,SW,232,0.0,17.0,0,0.00,,,0.00,VWS V14.01,2013-03-04 10:00:00,
2013-03-04 05:10:00,29.5,0.0,29.60,SW,218,2.0,9.0,0,0.00,,,0.00,VWS V14.01,2013-03-04 10:10:00,
2013-03-04 05:20:00,29.5,0.0,29.59,SW,224,2.0,6.0,0,0.00,,,0.00,VWS V14.01,2013-03-04 10:20:00,
2013-03-04 05:30:00,29.5,0.0,29.59,SW,216,0.0,9.0,0,0.00,,,0.00,VWS V14.01,2013-03-04 10:30:00,
2013-03-04 05:40:00,29.5,0.0,29.59,SSW,199,0.0,9.0,0,0.00,,,0.00,VWS V14.01,2013-03-04 10:40:00,
2013-03-04 05:50:00,29.7,0.0,29.60,SW,236,1.0,9.0,0,0.00,,,0.00,VWS V14.01,2013-03-04 10:50:00,
2013-03-04 06:00:00,29.5,0.0,29.60,West,271,2.0,10.0,0,0.00,,,0.00,VWS V14.01,2013-03-04 11:00:00,
2013-03-04 06:10:00,29.7,0.0,29.60,SW,232,3.0,9.0,0,0.00,,,0.00,VWS V14.01,2013-03-04 11:10:00,
2013-03-04 06:20:00,29.7,0.0,29.61,SW,223,1.0,10.0,0,0.00,,,0.00,VWS V14.01,2013-03-04 11:20:00,
2013-03-04 06:30:00,29.5,0.0,29.61,WSW,247,1.0,10.0,0,0.00,,,0.00,VWS V14.01,2013-03-04 11:30:00,
2013-03-04 06:40:00,29.7,0.0,29.61,SSW,207,0.0,10.0,0,0.00,,,0.00,VWS V14.01,2013-03-04 11:40:00,
2013-03-04 06:50:00,29.7,0.0,29.61,SSE,148,0.0,7.0,0,0.00,,,0.00,VWS V14.01,2013-03-04 11:50:00,
2013-03-04 07:00:00,29.7,0.0,29.61,SW,216,1.0,10.0,0,0.00,,,0.00,VWS V14.01,2013-03-04 12:00:00,
2013-03-04 07:10:00,29.7,0.0,29.61,SW,223,2.0,14.0,0,0.00,,,0.00,VWS V14.01,2013-03-04 12:10:00,
2013-03-04 07:20:00,29.7,0.0,29.61,SW,215,2.0,11.0,0,0.00,,,0.00,VWS V14.01,2013-03-04 12:20:00,
2013-03-04 07:30:00,29.8,0.0,29.62,SSW,212,2.0,10.0,0,0.00,,,0.00,VWS V14.01,2013-03-04 12:30:00,
2013-03-04 07:40:00,30.3,0.0,29.62,West,267,2.0,10.0,0,0.00,,,0.00,VWS V14.01,2013-03-04 12:40:00,
2013-03-04 07:50:00,30.6,0.0,29.63,South,189,4.0,20.0,0,0.00,,,0.00,VWS V14.01,2013-03-04 12:50:00,
2013-03-04 08:00:00,30.9,0.0,29.63,SSW,194,15.0,15.0,0,0.00,,,0.00,VWS V14.01,2013-03-04 13:00:00,
2013-03-04 08:10:00,31.0,0.0,29.63,SW,229,1.0,12.0,0,0.00,,,0.00,VWS V14.01,2013-03-04 13:10:00,
2013-03-04 08:20:00,31.2,0.0,29.62,East,85,0.0,17.0,0,0.00,,,0.00,VWS V14.01,2013-03-04 13:20:00,
2013-03-04 08:30:00,31.8,0.0,29.61,SW,225,8.0,15.0,0,0.00,,,0.00,VWS V14.01,2013-03-04 13:30:00,
2013-03-04 08:40:00,32.2,0.0,29.61,WSW,246,4.0,19.0,0,0.00,,,0.00,VWS V14.01,2013-03-04 13:40:00,
2013-03-04 08:50:00,32.4,0.0,29.61,SW,219,4.0,18.0,0,0.00,,,0.00,VWS V14.01,2013-03-04 13:50:00,
2013-03-04 09:00:00,32.4,0.0,29.61,SW,220,0.0,12.0,0,0.00,,,0.00,VWS V14.01,2013-03-04 14:00:00,
2013-03-04 09:10:00,32.8,0.0,29.61,West,267,5.0,13.0,0,0.00,,,0.00,VWS V14.01,2013-03-04 14:10:00,
2013-03-04 09:20:00,32.8,0.0,29.61,WSW,237,1.0,13.0,0,0.00,,,0.00,VWS V14.01,2013-03-04 14:20:00,
2013-03-04 09:30:00,33.2,0.0,29.60,SW,228,2.0,14.0,0,0.00,,,0.00,VWS V14.01,2013-03-04 14:30:00,
2013-03-04 09:40:00,33.4,0.0,29.60,SW,216,4.0,18.0,0,0.00,,,0.00,VWS V14.01,2013-03-04 14:40:00,
2013-03-04 09:50:00,33.8,0.0,29.60,SSW,212,15.0,16.0,0,0.00,,,0.00,VWS V14.01,2013-03-04 14:50:00,
2013-03-04 10:00:00,34.3,0.0,29.60,WSW,245,3.0,15.0,0,0.00,,,0.00,VWS V14.01,2013-03-04 15:00:00,
2013-03-04 10:10:00,34.7,0.0,29.60,West,266,10.0,17.0,0,0.00,,,0.00,VWS V14.01,2013-03-04 15:10:00,
2013-03-04 10:20:00,35.0,0.0,29.60,SSE,157,4.0,14.0,0,0.00,,,0.00,VWS V14.01,2013-03-04 15:20:00,
2013-03-04 10:30:00,35.6,0.0,29.60,SW,223,1.0,13.0,0,0.00,,,0.00,VWS V14.01,2013-03-04 15:30:00,
2013-03-04 10:40:00,36.2,0.0,29.60,SSW,209,4.0,14.0,0,0.00,,,0.00,VWS V14.01,2013-03-04 15:40:00,
2013-03-04 10:50:00,36.5,0.0,29.60,SW,220,9.0,17.0,0,0.00,,,0.00,VWS V14.01,2013-03-04 15:50:00,
2013-03-04 11:00:00,36.9,0.0,29.60,SSW,202,3.0,14.0,0,0.00,,,0.00,VWS V14.01,2013-03-04 16:00:00,
2013-03-04 11:10:00,37.0,0.0,29.60,ESE,109,0.0,15.0,0,0.00,,,0.00,VWS V14.01,2013-03-04 16:10:00,
2013-03-04 11:20:00,37.3,0.0,29.60,WSW,245,3.0,18.0,0,0.00,,,0.00,VWS V14.01,2013-03-04 16:20:00,
2013-03-04 11:30:00,37.0,0.0,29.60,SSW,196,2.0,12.0,0,0.00,,,0.00,VWS V14.01,2013-03-04 16:30:00,
2013-03-04 11:40:00,37.8,0.0,29.60,SW,217,4.0,19.0,0,0.00,,,0.00,VWS V14.01,2013-03-04 16:40:00,
2013-03-04 11:50:00,37.8,0.0,29.60,SSE,147,1.0,18.0,0,0.00,,,0.00,VWS V14.01,2013-03-04 16:50:00,
2013-03-04 12:00:00,36.9,0.0,29.59,SW,214,2.0,13.0,0,0.00,,,0.00,VWS V14.01,2013-03-04 17:00:00,
2013-03-04 12:10:00,37.6,0.0,29.59,WSW,256,10.0,14.0,0,0.00,,,0.00,VWS V14.01,2013-03-04 17:10:00,
2013-03-04 12:20:00,37.9,0.0,29.58,WSW,256,7.0,21.0,0,0.00,,,0.00,VWS V14.01,2013-03-04 17:20:00,
2013-03-04 12:30:00,38.2,0.0,29.57,SSW,211,5.0,21.0,0,0.00,,,0.00,VWS V14.01,2013-03-04 17:30:00,
2013-03-04 12:40:00,38.8,0.0,29.57,SSW,192,12.0,21.0,0,0.00,,,0.00,VWS V14.01,2013-03-04 17:40:00,
2013-03-04 12:50:00,38.6,0.0,29.57,SW,234,15.0,17.0,0,0.00,,,0.00,VWS V14.01,2013-03-04 17:50:00,
2013-03-04 13:00:00,39.2,0.0,29.57,WSW,242,8.0,17.0,0,0.00,,,0.00,VWS V14.01,2013-03-04 18:00:00,
2013-03-04 13:10:00,39.5,0.0,29.57,WSW,257,9.0,19.0,0,0.00,,,0.00,VWS V14.01,2013-03-04 18:10:00,
2013-03-04 13:20:00,39.9,0.0,29.56,SW,233,6.0,22.0,0,0.00,,,0.00,VWS V14.01,2013-03-04 18:20:00,
2013-03-04 13:30:00,40.5,0.0,29.56,SW,222,7.0,18.0,0,0.00,,,0.00,VWS V14.01,2013-03-04 18:30:00,
2013-03-04 13:40:00,40.3,0.0,29.56,SW,224,12.0,16.0,0,0.00,,,0.00,VWS V14.01,2013-03-04 18:40:00,
2013-03-04 13:50:00,40.3,0.0,29.57,SW,218,10.0,21.0,0,0.00,,,0.00,VWS V14.01,2013-03-04 18:50:00,
2013-03-04 14:00:00,40.5,0.0,29.56,SSW,207,10.0,18.0,0,0.00,,,0.00,VWS V14.01,2013-03-04 19:00:00,
2013-03-04 14:10:00,41.5,0.0,29.56,West,260,3.0,14.0,0,0.00,,,0.00,VWS V14.01,2013-03-04 19:10:00,
2013-03-04 14:20:00,41.2,0.0,29.56,WNW,297,2.0,17.0,0,0.00,,,0.00,VWS V14.01,2013-03-04 19:20:00,
2013-03-04 14:30:00,41.2,0.0,29.57,East,99,1.0,17.0,0,0.00,,,0.00,VWS V14.01,2013-03-04 19:30:00,
2013-03-04 14:40:00,41.2,0.0,29.57,WNW,286,2.0,16.0,0,0.00,,,0.00,VWS V14.01,2013-03-04 19:40:00,
2013-03-04 14:50:00,41.1,0.0,29.56,WSW,244,1.0,16.0,0,0.00,,,0.00,VWS V14.01,2013-03-04 19:50:00,
2013-03-04 15:00:00,41.2,0.0,29.56,WSW,238,7.0,15.0,0,0.00,,,0.00,VWS V14.01,2013-03-04 20:00:00,
2013-03-04 15:10:00,41.6,0.0,29.56,SW,221,7.0,15.0,0,0.00,,,0.00,VWS V14.01,2013-03-04 20:10:00,
2013-03-04 15:20:00,41.5,0.0,29.55,WSW,237,2.0,19.0,0,0.00,,,0.00,VWS V14.01,2013-03-04 20:20:00,
2013-03-04 15:30:00,41.2,0.0,29.56,WSW,246,3.0,23.0,0,0.00,,,0.00,VWS V14.01,2013-03-04 20:30:00,
2013-03-04 15:40:00,41.1,0.0,29.56,SW,217,4.0,18.0,0,0.00,,,0.00,VWS V14.01,2013-03-04 20:40:00,
2013-03-04 15:50:00,40.8,0.0,29.56,West,261,3.0,18.0,0,0.00,,,0.00,VWS V14.01,2013-03-04 20:50:00,
2013-03-04 16:00:00,40.5,0.0,29.57,WSW,253,7.0,19.0,0,0.00,,,0.00,VWS V14.01,2013-03-04 21:00:00,
2013-03-04 16:10:00,40.5,0.0,29.57,West,276,4.0,17.0,0,0.00,,,0.00,VWS V14.01,2013-03-04 21:10:00,
2013-03-04 16:20:00,40.2,0.0,29.57,SW,228,11.0,16.0,0,0.00,,,0.00,VWS V14.01,2013-03-04 21:20:00,
2013-03-04 16:30:00,39.8,0.0,29.57,SW,221,10.0,18.0,0,0.00,,,0.00,VWS V14.01,2013-03-04 21:30:00,
2013-03-04 16:40:00,39.3,0.0,29.57,WSW,246,3.0,19.0,0,0.00,,,0.00,VWS V14.01,2013-03-04 21:40:00,
2013-03-04 16:50:00,38.9,0.0,29.57,SSW,211,4.0,14.0,0,0.00,,,0.00,VWS V14.01,2013-03-04 21:50:00,
2013-03-04 17:00:00,38.6,0.0,29.58,WNW,287,6.0,16.0,0,0.00,,,0.00,VWS V14.01,2013-03-04 22:00:00,
2013-03-04 17:10:00,38.2,0.0,29.58,SSW,209,6.0,14.0,0,0.00,,,0.00,VWS V14.01,2013-03-04 22:10:00,
2013-03-04 17:20:00,38.0,0.0,29.58,WSW,248,1.0,16.0,0,0.00,,,0.00,VWS V14.01,2013-03-04 22:20:00,
2013-03-04 17:30:00,37.6,0.0,29.59,SW,215,2.0,17.0,0,0.00,,,0.00,VWS V14.01,2013-03-04 22:30:00,
2013-03-04 17:40:00,37.3,0.0,29.59,SSW,194,9.0,11.0,0,0.00,,,0.00,VWS V14.01,2013-03-04 22:40:00,
2013-03-04 17:50:00,36.9,0.0,29.60,WSW,245,5.0,15.0,0,0.00,,,0.00,VWS V14.01,2013-03-04 22:50:00,
2013-03-04 18:00:00,36.6,0.0,29.61,WSW,252,5.0,14.0,0,0.00,,,0.00,VWS V14.01,2013-03-04 23:00:00,
2013-03-04 18:10:00,36.6,0.0,29.61,SW,225,0.0,12.0,0,0.00,,,0.00,VWS V14.01,2013-03-04 23:10:00,
2013-03-04 18:20:00,36.5,0.0,29.61,SSW,203,9.0,14.0,0,0.00,,,0.00,VWS V14.01,2013-03-04 23:20:00,
2013-03-04 18:30:00,36.3,0.0,29.62,SSW,209,5.0,13.0,0,0.00,,,0.00,VWS V14.01,2013-03-04 23:30:00,
2013-03-04 18:40:00,36.2,0.0,29.62,WSW,254,3.0,12.0,0,0.00,,,0.00,VWS V14.01,2013-03-04 23:40:00,
2013-03-04 18:50:00,35.9,0.0,29.63,SSW,198,2.0,14.0,0,0.00,,,0.00,VWS V14.01,2013-03-04 23:50:00,
2013-03-04 19:00:00,35.8,0.0,29.64,SW,215,5.0,16.0,0,0.00,,,0.00,VWS V14.01,2013-03-05 00:00:00,
2013-03-04 19:10:00,35.5,0.0,29.64,ENE,65,4.0,14.0,0,0.00,,,0.00,VWS V14.01,2013-03-05 00:10:00,
2013-03-04 19:20:00,35.2,0.0,29.64,SW,221,2.0,13.0,0,0.00,,,0.00,VWS V14.01,2013-03-05 00:20:00,
2013-03-04 19:30:00,35.0,0.0,29.65,SSW,212,1.0,15.0,0,0.00,,,0.00,VWS V14.01,2013-03-05 00:30:00,
2013-03-04 19:40:00,34.7,0.0,29.65,West,266,3.0,12.0,0,0.00,,,0.00,VWS V14.01,2013-03-05 00:40:00,
2013-03-04 19:50:00,34.6,0.0,29.64,NNW,327,4.0,18.0,0,0.00,,,0.00,VWS V14.01,2013-03-05 00:50:00,
2013-03-04 20:00:00,34.3,0.0,29.65,West,266,3.0,17.0,0,0.00,,,0.00,VWS V14.01,2013-03-05 01:00:00,
2013-03-04 20:10:00,34.1,0.0,29.65,South,188,4.0,11.0,0,0.00,,,0.00,VWS V14.01,2013-03-05 01:10:00,
2013-03-04 20:20:00,33.8,0.0,29.66,SSW,211,7.0,17.0,0,0.00,,,0.00,VWS V14.01,2013-03-05 01:20:00,
2013-03-04 20:30:00,33.7,0.0,29.67,SSW,209,11.0,15.0,0,0.00,,,0.00,VWS V14.01,2013-03-05 01:30:00,
2013-03-04 20:40:00,33.4,0.0,29.67,WSW,240,2.0,12.0,0,0.00,,,0.00,VWS V14.01,2013-03-05 01:40:00,
2013-03-04 20:50:00,33.1,0.0,29.67,SSW,206,3.0,11.0,0,0.00,,,0.00,VWS V14.01,2013-03-05 01:50:00,
2013-03-04 21:00:00,33.1,0.0,29.68,SW,217,1.0,22.0,0,0.00,,,0.00,VWS V14.01,2013-03-05 02:00:00,
2013-03-04 21:10:00,32.8,0.0,29.68,SW,218,4.0,14.0,0,0.00,,,0.00,VWS V14.01,2013-03-05 02:10:00,
2013-03-04 21:20:00,32.7,0.0,29.69,SW,215,3.0,9.0,0,0.00,,,0.00,VWS V14.01,2013-03-05 02:20:00,
2013-03-04 21:30:00,32.5,0.0,29.69,SW,215,7.0,10.0,0,0.00,,,0.00,VWS V14.01,2013-03-05 02:30:00,
2013-03-04 21:40:00,32.5,0.0,29.69,SSW,213,6.0,12.0,0,0.00,,,0.00,VWS V14.01,2013-03-05 02:40:00,
2013-03-04 21:50:00,32.4,0.0,29.69,SSW,194,3.0,10.0,0,0.00,,,0.00,VWS V14.01,2013-03-05 02:50:00,
2013-03-04 22:00:00,32.4,0.0,29.69,SW,231,3.0,13.0,0,0.00,,,0.00,VWS V14.01,2013-03-05 03:00:00,
2013-03-04 22:10:00,32.2,0.0,29.69,SW,215,5.0,11.0,0,0.00,,,0.00,VWS V14.01,2013-03-05 03:10:00,
2013-03-04 22:20:00,32.1,0.0,29.69,WSW,248,0.0,14.0,0,0.00,,,0.00,VWS V14.01,2013-03-05 03:20:00,
2013-03-04 22:30:00,31.9,0.0,29.69,SW,225,2.0,7.0,0,0.00,,,0.00,VWS V14.01,2013-03-05 03:30:00,
2013-03-04 22:40:00,31.8,0.0,29.69,SW,222,4.0,12.0,0,0.00,,,0.00,VWS V14.01,2013-03-05 03:40:00,
2013-03-04 22:50:00,31.8,0.0,29.69,SSW,206,1.0,14.0,0,0.00,,,0.00,VWS V14.01,2013-03-05 03:50:00,
2013-03-04 23:00:00,31.8,0.0,29.70,SSW,205,2.0,10.0,0,0.00,,,0.00,VWS V14.01,2013-03-05 04:00:00,
2013-03-04 23:10:00,31.6,0.0,29.70,SSW,213,1.0,13.0,0,0.00,,,0.00,VWS V14.01,2013-03-05 04:10:00,
2013-03-04 23:20:00,31.8,0.0,29.70,SSW,194,7.0,14.0,0,0.00,,,0.00,VWS V14.01,2013-03-05 04:20:00,
2013-03-04 23:30:00,31.8,0.0,29.70,SW,217,3.0,12.0,0,0.00,,,0.00,VWS V14.01,2013-03-05 04:30:00,
2013-03-04 23:40:00,31.9,0.0,29.70,SW,227,1.0,16.0,0,0.00,,,0.00,VWS V14.01,2013-03-05 04:40:00,
2013-03-04 23:50:00,31.9,0.0,29.70,South,186,2.0,14.0,0,0.00,,,0.00,VWS V14.01,2013-03-05 04:50:00,